FOOLFOOG

Guest
Details From FOOL - Libreville Airport
To FOOG - Port Gentil
Flight Number -
Tags generated
Created
Modified
Stats Distance 83 nm / 153 km
Max Altitude 500 ft / 152 m
Waypoints 3
Social Downloads 4
Likes 0
Share VATSIM

Download

Looking for another format? Having issues loading an existing format? Contact us
Advertisement - Login to hide

Notes

Basic altitude profile: - Ascent Rate: 2500ft/min - Ascent Speed: 250kts - Cruise Altitude: 35000ft - Cruise Speed: 420kts - Descent Rate: 1500ft/min - Descent Speed: 250kts Options: - Use NATs: yes - Use PACOTS: yes - Use low airways: no - Use high airways: yes

Route

FOOL LV FOOG

ID Type Via Altitude (ft/m) Position (lat/lon) Dist (leg/tot) Name
O FOOL APT - 0 / 0 0.45844 / 9.41233 - / 0 nm Libreville Airport
LV VOR - 500 / 152 0.47983 / 9.40197 1 / 1 nm LIBREVILLE
O FOOG APT - 0 / 0 -0.71174 / 8.75438 81 / 82 nm Port Gentil

Altitude Profile

Advertisement - Login to hide

FOOL

Details ICAO FOOL (LBV)
Name Libreville Airport
Region Gabon
Timezone Africa/Libreville (UTC+1.0)
Stats Elevation 39 ft / 12 m (AMSL)
Location 0.458442° 9.412330°
Runways 1
Magnetic Variation 1.716° W

METAR

FOOL 201030Z 22004KT 170V280 9999 FEW013 28/22 Q1014 NOSIG

Decode

TAF

TAF FOOL 200448Z 2006/2112 15006KT 9999 SCT012 BKN030

Decode

Departure Runways

ID Width Length Bearing (true/mag) Surface Threshold Overrun Markings Lighting
16 148 ft / 45 m 9,852 ft / 3,003 m 154.26° / 155.98° ASPHALT 0 ft / 0 m 213 ft / 65 m PREC-APP EDGE THRESHOLD MALS
34 148 ft / 45 m 9,852 ft / 3,003 m 334.26° / 335.98° ASPHALT 0 ft / 0 m 210 ft / 64 m PREC-APP EDGE THRESHOLD

FOOG

Details ICAO FOOG (POG)
Name Port Gentil
Region Gabon
Timezone Africa/Libreville (UTC+1.0)
Stats Elevation 13 ft / 4 m (AMSL)
Location -0.711739° 8.754380°
Runways 1
Magnetic Variation 2.195° W

METAR

FOOG 201000Z 18010KT 140V210 9999 SCT013 BKN033 28/22 Q1015

Decode

TAF

TAF FOOG 200502Z 2006/2106 16006KT 9999 SCT008 BKN030= TAF FOOL 200448Z 2006/2112 15006KT 9999 SCT012 BKN030

Decode

Destination Runways

ID Width Length Bearing (true/mag) Surface Threshold Overrun Markings Lighting
03 148 ft / 45 m 6,265 ft / 1,910 m 22.17° / 24.37° ASPHALT 0 ft / 0 m 0 ft / 0 m APP CENTERLINE EDGE THRESHOLD
21 148 ft / 45 m 6,265 ft / 1,910 m 202.17° / 204.37° ASPHALT 0 ft / 0 m 197 ft / 60 m APP CENTERLINE EDGE THRESHOLD

Popular Alternatives